This is the latest recevied weather packets stored in our database for station/object WA7CUG. If no packets are shown the sender has not sent any weather packets the latest 10 day(s).
| Time | Temp. | Humidity | Pressure | Rain* | Wind** | Luminosity | Snow |
|---|---|---|---|---|---|---|---|
| 1777494298 | 21.67° C | 36% | 1023.1 hPa | 0 mm | - | 677 W/m² | - |
| 1777493994 | 21.11° C | 39% | 1023.1 hPa | 0 mm | - | 679 W/m² | - |
| 1777493693 | 21.11° C | 40% | 1023.3 hPa | 0 mm | - | 677 W/m² | - |
| 1777493390 | 21.67° C | 41% | 1023.2 hPa | 0 mm | - | 679 W/m² | - |
| 1777493086 | 20.56° C | 38% | 1023.4 hPa | 0 mm | - | 680 W/m² | - |
| 1777492783 | 20.56° C | 37% | 1023.3 hPa | 0 mm | - | 680 W/m² | - |
| 1777492479 | 20.56° C | 40% | 1023.4 hPa | 0 mm | - | 677 W/m² | - |
| 1777492176 | 20.56° C | 39% | 1023.3 hPa | 0 mm | - | 673 W/m² | - |
| 1777491872 | 21.11° C | 41% | 1023.8 hPa | 0 mm | - | 673 W/m² | - |
| 1777491569 | 20.56° C | 40% | 1023.6 hPa | 0 mm | - | 669 W/m² | - |
| 1777491267 | 20° C | 41% | 1023.8 hPa | 0 mm | - | 669 W/m² | - |
| 1777490963 | 20° C | 41% | 1023.8 hPa | 0 mm | - | 665 W/m² | - |
| 1777490659 | 19.44° C | 42% | 1023.5 hPa | 0 mm | - | 663 W/m² | - |
| 1777490355 | 19.44° C | 41% | 1023.9 hPa | 0 mm | - | 659 W/m² | - |
| 1777490053 | 20° C | 40% | 1024 hPa | 0 mm | - | 655 W/m² | - |
| 1777489750 | 19.44° C | 43% | 1023.6 hPa | 0 mm | - | 651 W/m² | - |
| 1777489447 | 19.44° C | 44% | 1023.9 hPa | 0 mm | - | 647 W/m² | - |
| 1777489143 | 19.44° C | 43% | 1023.9 hPa | 0 mm | - | 640 W/m² | - |
| 1777488841 | 18.89° C | 44% | 1024 hPa | 0 mm | - | 635 W/m² | - |
| 1777488538 | 18.89° C | 46% | 1024 hPa | 0 mm | - | 630 W/m² | - |
| 1777488236 | 18.89° C | 45% | 1024 hPa | 0 mm | - | 625 W/m² | - |
| 1777487934 | 18.33° C | 46% | 1024.2 hPa | 0 mm | - | 618 W/m² | - |
| 1777487631 | 18.33° C | 46% | 1024.2 hPa | 0 mm | - | 611 W/m² | - |
| 1777487328 | 17.78° C | 46% | 1024.3 hPa | 0 mm | - | 605 W/m² | - |
| 1777487025 | 17.78° C | 45% | 1024.3 hPa | 0 mm | - | 598 W/m² | - |
* Rain latest hour (hover to see other rain measurements)
** Current wind speed in m/s (hover to see current wind gust speed)